When you browse on this site, cookies collect data to enhance your experience and personalize the content and advertising you see.
Visit our Privacy Policy to learn more. By continuing to use the site, you agree to this use of cookies and data.
  • In Latvia
  • List of Countries
  • For 7 days
  • Water Temperature
  • Satellite Maps
  • Weather Map
  • Weather Widgets
  • user-avatar
    Login

    Hourly Weather Trypolis

    Today, 21 January, Monday

    Time Temperature Precipitation Wind Pressure Humidity
    00:00 +13°C° 0 mm 6 mps 760 mmHg 41%
    01:00 +13°C° 0 mm 6 mps 760 mmHg 41%
    02:00 +13°C° 0 mm 6 mps 760 mmHg 41%
    03:00 +12°C° 0 mm 7 mps 760 mmHg 41%
    04:00 +12°C° 0 mm 7 mps 759 mmHg 42%
    05:00 +12°C° 0 mm 7 mps 759 mmHg 43%
    06:00 +12°C° 0 mm 7 mps 759 mmHg 43%
    07:00 +12°C° 0 mm 7 mps 759 mmHg 44%
    08:00 +14°C° 0 mm 7 mps 759 mmHg 39%
    09:00 +16°C° 0 mm 8 mps 759 mmHg 34%
    10:00 +17°C° 0 mm 8 mps 759 mmHg 29%
    11:00 +20°C° 0 mm 8 mps 759 mmHg 26%
    12:00 +21°C° 0 mm 8 mps 758 mmHg 23%
    13:00 +22°C° 0 mm 7 mps 758 mmHg 21%
    14:00 +22°C° 0 mm 7 mps 758 mmHg 21%
    15:00 +22°C° 0 mm 6 mps 757 mmHg 21%
    16:00 +22°C° 0 mm 5 mps 757 mmHg 21%
    17:00 +21°C° 0 mm 6 mps 757 mmHg 25%
    18:00 +20°C° 0 mm 6 mps 757 mmHg 29%
    19:00 +17°C° 0 mm 6 mps 757 mmHg 34%
    20:00 +17°C° 0 mm 6 mps 758 mmHg 35%
    21:00 +16°C° 0 mm 6 mps 758 mmHg 37%
    22:00 +16°C° 0 mm 7 mps 759 mmHg 39%
    23:00 +15°C° 0 mm 7 mps 759 mmHg 41%

    Tomorrow, 22 January, Tuesday

    Time Temperature Precipitation Wind Pressure Humidity
    00:00 +15°C° 0 mm 8 mps 759 mmHg 43%
    01:00 +13°C° 0 mm 8 mps 759 mmHg 45%
    02:00 +13°C° 0 mm 8 mps 759 mmHg 48%
    03:00 +13°C° 0 mm 8 mps 759 mmHg 51%
    04:00 +12°C° 0 mm 8 mps 759 mmHg 54%
    05:00 +12°C° 0 mm 7 mps 759 mmHg 57%
    06:00 +11°C° 0 mm 7 mps 759 mmHg 59%
    07:00 +11°C° 0 mm 6 mps 759 mmHg 61%
    08:00 +13°C° 0 mm 6 mps 760 mmHg 58%
    09:00 +14°C° 0 mm 6 mps 760 mmHg 55%
    10:00 +15°C° 0 mm 5 mps 760 mmHg 51%
    11:00 +16°C° 0 mm 5 mps 760 mmHg 49%
    12:00 +17°C° 0 mm 4 mps 759 mmHg 46%
    13:00 +18°C° 0 mm 4 mps 758 mmHg 43%
    14:00 +18°C° 0 mm 4 mps 758 mmHg 46%
    15:00 +17°C° 0 mm 3 mps 758 mmHg 49%
    16:00 +17°C° 0 mm 3 mps 757 mmHg 51%
    17:00 +17°C° 0 mm 3 mps 757 mmHg 57%
    18:00 +15°C° 0 mm 4 mps 757 mmHg 62%
    19:00 +15°C° 0 mm 4 mps 757 mmHg 68%
    20:00 +14°C° 0.1 mm 4 mps 757 mmHg 70%
    21:00 +14°C° 0.1 mm 4 mps 757 mmHg 72%
    22:00 +14°C° 0.1 mm 4 mps 757 mmHg 74%
    23:00 +14°C° 0.1 mm 4 mps 756 mmHg 74%

    Day after tomorrow, 23 January, Wednesday

    Time Temperature Precipitation Wind Pressure Humidity
    00:00 +14°C° 0.1 mm 4 mps 756 mmHg 74%
    01:00 +13°C° 0.1 mm 4 mps 755 mmHg 75%
    02:00 +13°C° 0.5 mm 4 mps 754 mmHg 76%
    03:00 +13°C° 0.5 mm 3 mps 754 mmHg 76%
    04:00 +13°C° 0.5 mm 3 mps 753 mmHg 77%
    05:00 +12°C° 1.3 mm 4 mps 753 mmHg 78%
    06:00 +12°C° 1.3 mm 4 mps 753 mmHg 78%
    07:00 +12°C° 1.3 mm 5 mps 753 mmHg 78%
    08:00 +11°C° 0.4 mm 6 mps 753 mmHg 77%
    09:00 +11°C° 0.4 mm 7 mps 753 mmHg 75%
    10:00 +11°C° 0.4 mm 8 mps 753 mmHg 73%
    11:00 +12°C° 0 mm 9 mps 752 mmHg 63%
    12:00 +13°C° 0 mm 10 mps 752 mmHg 53%
    13:00 +14°C° 0 mm 11 mps 751 mmHg 43%
    14:00 +14°C° 0 mm 11 mps 751 mmHg 40%
    15:00 +14°C° 0 mm 11 mps 750 mmHg 37%
    16:00 +14°C° 0 mm 10 mps 750 mmHg 33%
    17:00 +13°C° 0 mm 11 mps 750 mmHg 40%
    18:00 +12°C° 0 mm 11 mps 750 mmHg 46%
    19:00 +10°C° 0 mm 12 mps 750 mmHg 53%
    20:00 +11°C° 0 mm 11 mps 750 mmHg 52%
    21:00 +11°C° 0 mm 11 mps 750 mmHg 52%
    22:00 +11°C° 0 mm 10 mps 749 mmHg 51%
    23:00 +11°C° 0 mm 11 mps 749 mmHg 50%

    24 January, Thursday

    Time Temperature Precipitation Wind Pressure Humidity
    00:00 +10°C° 0 mm 12 mps 749 mmHg 49%
    01:00 +10°C° 0 mm 12 mps 748 mmHg 47%
    02:00 +10°C° 0 mm 13 mps 748 mmHg 45%
    03:00 +10°C° 0 mm 13 mps 747 mmHg 42%
    04:00 +10°C° 0 mm 13 mps 747 mmHg 40%
    05:00 +10°C° 0 mm 13 mps 747 mmHg 41%
    06:00 +10°C° 0 mm 13 mps 747 mmHg 43%
    07:00 +10°C° 0 mm 13 mps 746 mmHg 45%
    08:00 +10°C° 0.5 mm 13 mps 747 mmHg 50%
    09:00 +9°C° 0.5 mm 14 mps 747 mmHg 55%
    10:00 +9°C° 0.5 mm 14 mps 747 mmHg 61%
    11:00 +10°C° 0.3 mm 14 mps 747 mmHg 54%
    12:00 +11°C° 0.3 mm 15 mps 747 mmHg 48%
    13:00 +13°C° 0.3 mm 15 mps 747 mmHg 42%
    14:00 +13°C° 0.1 mm 15 mps 747 mmHg 39%
    15:00 +13°C° 0.1 mm 15 mps 747 mmHg 37%
    16:00 +13°C° 0.1 mm 15 mps 747 mmHg 35%
    17:00 +11°C° 0 mm 15 mps 747 mmHg 35%
    18:00 +10°C° 0 mm 15 mps 748 mmHg 35%
    19:00 +9°C° 0 mm 15 mps 748 mmHg 35%
    20:00 +9°C° 0 mm 15 mps 749 mmHg 34%
    21:00 +9°C° 0 mm 14 mps 749 mmHg 33%
    22:00 +9°C° 0 mm 14 mps 750 mmHg 33%
    23:00 +9°C° 0 mm 13 mps 750 mmHg 34%

    25 January, Friday

    Time Temperature Precipitation Wind Pressure Humidity
    00:00 +8°C° 0 mm 13 mps 751 mmHg 34%
    01:00 +8°C° 0 mm 13 mps 751 mmHg 35%
    02:00 +8°C° 0 mm 12 mps 751 mmHg 36%
    03:00 +7°C° 0 mm 12 mps 751 mmHg 37%
    04:00 +7°C° 0 mm 12 mps 751 mmHg 38%
    05:00 +7°C° 0 mm 12 mps 751 mmHg 40%
    06:00 +7°C° 0 mm 12 mps 752 mmHg 41%
    07:00 +5°C° 0 mm 13 mps 752 mmHg 43%
    08:00 +7°C° 0 mm 13 mps 753 mmHg 43%
    09:00 +8°C° 0 mm 13 mps 754 mmHg 43%
    10:00 +9°C° 0 mm 13 mps 754 mmHg 44%
    11:00 +10°C° 0 mm 13 mps 754 mmHg 43%
    12:00 +12°C° 0 mm 13 mps 754 mmHg 42%
    13:00 +13°C° 0 mm 13 mps 754 mmHg 41%
    14:00 +13°C° 0 mm 13 mps 754 mmHg 43%
    15:00 +13°C° 0 mm 13 mps 754 mmHg 44%
    16:00 +13°C° 0 mm 13 mps 754 mmHg 46%
    17:00 +13°C° 0.2 mm 12 mps 755 mmHg 50%
    18:00 +12°C° 0.2 mm 11 mps 755 mmHg 53%
    19:00 +12°C° 0.2 mm 11 mps 756 mmHg 56%
    20:00 +12°C° 0.4 mm 10 mps 756 mmHg 58%
    21:00 +11°C° 0.4 mm 10 mps 756 mmHg 61%
    22:00 +11°C° 0.4 mm 9 mps 757 mmHg 63%
    23:00 +11°C° 0.6 mm 9 mps 757 mmHg 65%

    26 January, Saturday

    Time Temperature Precipitation Wind Pressure Humidity
    00:00 +11°C° 0.6 mm 10 mps 757 mmHg 66%
    01:00 +11°C° 0.6 mm 10 mps 757 mmHg 68%
    02:00 +11°C° 0.8 mm 10 mps 758 mmHg 69%
    03:00 +11°C° 0.8 mm 11 mps 758 mmHg 70%
    04:00 +11°C° 0.8 mm 11 mps 758 mmHg 71%
    05:00 +11°C° 0.8 mm 11 mps 758 mmHg 71%
    06:00 +11°C° 0.8 mm 11 mps 759 mmHg 71%
    07:00 +11°C° 0.8 mm 11 mps 759 mmHg 72%
    08:00 +11°C° 0.7 mm 11 mps 760 mmHg 70%
    09:00 +11°C° 0.7 mm 11 mps 760 mmHg 67%
    10:00 +12°C° 0.7 mm 11 mps 761 mmHg 65%
    11:00 +12°C° 0.3 mm 10 mps 761 mmHg 63%
    12:00 +12°C° 0.3 mm 10 mps 761 mmHg 60%
    13:00 +13°C° 0.3 mm 10 mps 761 mmHg 58%
    14:00 +13°C° 0.1 mm 10 mps 760 mmHg 58%
    15:00 +13°C° 0.1 mm 10 mps 760 mmHg 57%
    16:00 +13°C° 0.1 mm 10 mps 760 mmHg 57%
    17:00 +12°C° 0.1 mm 9 mps 760 mmHg 59%
    18:00 +12°C° 0.1 mm 9 mps 761 mmHg 60%
    19:00 +11°C° 0.1 mm 8 mps 761 mmHg 62%
    20:00 +11°C° 0.1 mm 8 mps 761 mmHg 61%
    21:00 +11°C° 0.1 mm 8 mps 761 mmHg 60%
    22:00 +10°C° 0.1 mm 8 mps 761 mmHg 59%
    23:00 +10°C° 0.1 mm 8 mps 761 mmHg 57%
    Show more